Location: Riverside
(39.1734°N, 77.8561°W)
Time: 23:58:25
(UTC+00:00)

Hubble Space Telescope - Pass Details

Date: 23 November 2019
Orbit: 536 x 540 km, 28.5° (Epoch: 10 December)

Event Time Altitude Azimuth Distance (km) Brightness Sun altitude
Rises 23:43:46 0° 246° (WSW) 2,669 5.7 -21.4°
Reaches altitude 10° 23:46:34 10° 227° (SW) 1,779 4.2 -21.9°
Maximum altitude 23:49:23 18° 184° (S) 1,350 2.9 -22.5°
Enters shadow 23:50:10 17° 169° (S) 1,387 2.8 -22.6°
